Regional Weather Roundup
Issued by NWS

Home | Current Version | Previous Version | Text Only | Print | Product List | Glossary Off
Versions: 1 2 3 4 5 6 7 8 9 10 11 12 13 14 15 16 17 18 19 20 21 22 23 24 25 26 27 28 29 30 31 32 33 34 35 36 37 38 39 40 41 42 43 44 45 46 47 48 49 50

000
ASUS43 KOAX 220810
RWRNE

WEATHER ROUNDUP FOR NEBRASKA
NATIONAL WEATHER SERVICE OMAHA NE
200 AM CST MON DEC 22 2014

NOTES: SATELLITE DATA IS BEING USED TO AUGMENT CLOUD COVER ABOVE
       12000 FEET.
       "FAIR" INDICATES FEW OR NO CLOUDS BELOW 12,000 FEET WITH NO
       SIGNIFICANT WEATHER AND/OR OBSTRUCTIONS TO VISIBILITY.

  * THESE STATIONS DO NOT REPORT WEATHER SUCH AS RAIN...SNOW OR FOG.

NEZ001>004-019>022-054>056-220900-
NEBRASKA PANHANDLE

CITY           SKY/WX    TMP DP  RH WIND       PRES   REMARKS
SCOTTSBLUFF    MOCLDY    36  30  79 W13       29.63R WCI  27
ALLIANCE       PTCLDY    35  28  75 NW14      29.57R WCI  26
CHADRON        CLOUDY    38  30  73 NW21G29   29.58S WCI  28
KIMBALL        PTCLDY    31  28  90 NW13      29.62R WCI  21
SIDNEY         CLOUDY    36  28  73 NW16      29.61R WCI  26
$$

NEZ057>060-069>072-079>082-220900-
SOUTHWEST NEBRASKA

CITY           SKY/WX    TMP DP  RH WIND       PRES   REMARKS
NORTH PLATTE   MOCLDY    26  25  96 N5        29.52S WCI  20
IMPERIAL       CLOUDY    40  29  64 NW17      29.55S WCI  31
LEXINGTON      FOG       33  32  96 W5        29.50F VSB 1/2 WCI  28
MCCOOK         PTCLDY    34  30  85 W14       29.52F WCI  25
OGALLALA       CLOUDY    38  32  77 NW14      29.55R WCI  30
$$

NEZ005>010-023>029-035>040-094-220900-
NORTH CENTRAL NEBRASKA

CITY           SKY/WX    TMP DP  RH WIND       PRES   REMARKS
VALENTINE      CLOUDY    39  34  82 NW13G18   29.47S WCI  31
AINSWORTH      CLOUDY    38  33  85 NW14      29.46S WCI  29
BROKEN BOW     CLOUDY    36  33  89 W6        29.48S WCI  31
O`NEILL        CLOUDY    38  38 100 S9        29.46F FOG     WCI  32
THEDFORD       MOCLDY    36  33  87 W12       29.50R WCI  28
$$

NEZ041-046>049-061>064-073>077-083>087-220900-
SOUTH CENTRAL NEBRASKA

CITY           SKY/WX    TMP DP  RH WIND       PRES   REMARKS
GRAND ISLAND   CLOUDY    42  39  89 S10       29.52S
AURORA         CLOUDY    42  42 100 S10       29.52S FOG
HASTINGS       CLOUDY    42  39  89 S12       29.51S
HEBRON         CLOUDY    43  41  93 S12       29.56F FOG
HOLDREGE       CLOUDY    38  37  94 SW6       29.51R FOG     WCI  33
KEARNEY *      CLOUDY    39  37  93 S9        29.51S WCI  33
YORK           CLOUDY    43  41  93 S13       29.54F FOG
$$

NEZ011>018-030>034-042>045-220900-
NORTHEAST NEBRASKA

CITY           SKY/WX    TMP DP  RH WIND       PRES   REMARKS
NORFOLK        CLOUDY    43  40  89 S13       29.51F
ALBION         CLOUDY    41  38  90 S10       29.51S FOG
BLAIR          DRIZZLE   44  42  93 S14       29.58F
COLUMBUS *     CLOUDY    43  39  87 S14       29.54F
FREMONT        LGT RAIN  44  43  97 SE12      29.57F
TEKAMAH        LGT RAIN  44  42  93 SE15      29.58F FOG
WAYNE          LGT RAIN  41  40  97 S13       29.53F
$$

NEZ050>053-065>068-078-088>093-220900-
SOUTHEAST NEBRASKA

CITY           SKY/WX    TMP DP  RH WIND       PRES   REMARKS
LINCOLN        LGT RAIN  44  42  93 S14       29.58F
OMAHA EPPLEY   DRIZZLE   43  42  97 S15       29.61F FOG
BEATRICE       CLOUDY    42  42  97 S12       29.58S FOG
FALLS CITY     CLOUDY    43  40  89 S9        29.64F
NEBRASKA CITY  CLOUDY    42  42 100 S16G22    29.61F FOG
PLATTSMOUTH    CLOUDY    42  41  94 S12       29.61S FOG
$$

NEZ044-045-051>053-067-220900-
OMAHA AREA

CITY           SKY/WX    TMP DP  RH WIND       PRES   REMARKS
OMAHA EPPLEY   DRIZZLE   43  42  97 S15       29.61F FOG
BLAIR          DRIZZLE   44  42  93 S14       29.58F
FREMONT        LGT RAIN  44  43  97 SE12      29.57F
MILLARD        LGT RAIN  44  42  92 S10       29.59F
OFFUTT AFB     CLOUDY    43  42  96 SE12      29.60F
PLATTSMOUTH    CLOUDY    42  41  94 S12       29.61S FOG
WAHOO          DRIZZLE   43  41  91 S13       29.58S
$$



USA.gov is the U.S. government's official web portal to all federal, state and local government web resources and services.